KA0WKG Weather Reports


time (UTC)temp
F
wind
direction
speed
knots
gust
knots
rain 1hr
in
rain 24hr
in
rain mn
in
humidity
%
barometer
mb
20260507114504 40 261 13.9 18.2 0.00 0.00 0.00 80 1012.1
20260507114005 40 262 13.0 17.4 0.00 0.00 0.00 80 1012.2
20260507113506 40 265 12.2 17.4 0.00 0.00 0.00 80 1012.2
20260507112504 40 260 13.9 17.4 0.00 0.00 0.00 82 1012.2
20260507111005 39 258 13.0 17.4 0.00 0.00 0.00 84 1012.2
20260507110504 38 255 11.3 14.8 0.00 0.00 0.00 86 1012.2
20260507110004 37 257 12.2 14.8 0.00 0.00 0.00 87 1012.2
20260507105504 37 256 11.3 14.8 0.00 0.00 0.00 89 1012.3
20260507105004 37 256 11.3 14.8 0.00 0.00 0.00 89 1012.4
20260507103505 36 255 12.2 14.8 0.00 0.00 0.00 91 1012.5
20260507103005 36 257 11.3 14.8 0.00 0.00 0.00 92 1012.5
20260507102504 36 251 12.2 13.9 0.00 0.00 0.00 92 1012.5
20260507102006 36 251 12.2 13.9 0.00 0.00 0.00 92 1012.5
20260507101504 36 252 11.3 13.0 0.00 0.00 0.00 92 1012.5
20260507101004 36 248 11.3 13.0 0.00 0.00 0.00 92 1012.8
20260507100504 36 248 11.3 13.0 0.00 0.00 0.00 92 1012.7
20260507100005 36 247 9.6 13.9 0.00 0.00 0.00 92 1012.8
20260507095504 36 247 11.3 13.9 0.00 0.00 0.00 93 1012.9
20260507095005 36 251 10.4 13.0 0.00 0.00 0.00 93 1012.9
20260507094504 36 254 10.4 13.0 0.00 0.00 0.00 93 1012.9
20260507094004 36 258 9.6 12.2 0.00 0.00 0.00 93 1013.0
20260507093003 36 257 10.4 13.0 0.00 0.00 0.00 93 1013.0
20260507092504 36 252 10.4 13.0 0.00 0.00 0.00 93 1013.1
20260507092004 36 250 10.4 13.0 0.00 0.00 0.00 93 1013.2
20260507091004 36 252 10.4 13.0 0.00 0.00 0.00 94 1013.3
20260507090504 36 254 10.4 13.0 0.00 0.00 0.00 94 1013.5
20260507085504 35 251 11.3 13.0 0.00 0.00 0.00 94 1013.7
20260507085004 35 253 10.4 13.0 0.00 0.00 0.00 94 1013.8
20260507084503 35 253 11.3 13.0 0.00 0.00 0.00 94 1013.7
20260507084004 35 249 11.3 13.0 0.00 0.00 0.00 93 1013.7
20260507083504 36 247 9.6 13.0 0.00 0.00 0.00 93 1013.7
20260507083004 35 256 9.6 14.8 0.00 0.00 0.00 92 1013.8
20260507082504 36 250 11.3 14.8 0.00 0.00 0.00 92 1013.8
20260507082003 36 246 11.3 14.8 0.00 0.00 0.00 92 1013.8
20260507081504 36 253 12.2 14.8 0.00 0.00 0.00 92 1013.9
20260507081004 36 254 11.3 15.6 0.00 0.00 0.00 92 1014.2
20260507080505 36 251 12.2 17.4 0.00 0.00 0.00 91 1014.3
20260507075503 36 246 13.9 17.4 0.00 0.00 0.00 92 1014.5
20260507074504 35 241 12.2 15.6 0.00 0.00 0.00 92 1014.7
20260507074003 35 247 11.3 14.8 0.00 0.00 0.00 92 1014.8
20260507073509 36 246 12.2 14.8 0.00 0.00 0.00 92 1015.0
20260507073009 35 244 12.2 13.9 0.00 0.00 0.00 93 1015.0
20260507072008 36 243 11.3 13.0 0.00 0.00 0.00 92 1015.1
20260507071508 36 240 10.4 13.0 0.00 0.00 0.00 92 1015.2
20260507071008 36 240 8.7 13.0 0.00 0.00 0.00 93 1015.2
20260507070012 36 239 8.7 12.2 0.00 0.01 0.00 92 1015.3
20260507064508 36 240 10.4 13.0 0.00 0.01 0.00 92 1015.5
20260507064010 36 239 8.7 13.0 0.00 0.01 0.00 91 1015.5
20260507063508 37 238 10.4 13.0 0.00 0.01 0.00 91 1015.5
20260507062508 37 235 10.4 13.9 0.00 0.01 0.00 90 1015.7
20260507062010 37 239 11.3 13.9 0.00 0.01 0.00 90 1015.7
20260507061509 37 240 11.3 17.4 0.00 0.01 0.00 90 1015.8
20260507061009 37 241 10.4 17.4 0.00 0.01 0.00 90 1015.8
20260507060509 37 241 13.0 17.4 0.00 0.01 0.00 90 1015.9
20260507060009 37 247 12.2 17.4 0.00 0.01 0.00 90 1015.9
20260507055508 37 245 12.2 15.6 0.00 0.01 0.00 91 1016.0
20260507055009 37 238 12.2 15.6 0.00 0.01 0.00 91 1016.0
20260507054508 37 238 11.3 13.9 0.00 0.01 0.00 91 1016.0
20260507054008 37 235 10.4 13.9 0.00 0.01 0.00 91 1015.9
20260507053509 37 236 10.4 13.0 0.00 0.01 0.00 91 1015.9
20260507053009 37 238 9.6 13.0 0.00 0.01 0.00 90 1016.0
20260507052508 37 239 10.4 13.0 0.00 0.01 0.00 90 1016.0
20260507052010 37 236 10.4 12.2 0.00 0.01 0.00 90 1016.1
20260507051508 37 239 10.4 12.2 0.00 0.01 0.00 90 1016.1
20260507051008 37 240 10.4 13.0 0.00 0.01 0.00 90 1016.1
20260507050509 37 239 10.4 13.0 0.00 0.01 0.00 90 1016.1
20260507050008 37 245 10.4 13.0 0.00 0.01 0.00 90 1016.1
20260507045008 36 244 9.6 11.3 0.00 0.01 0.00 91 1016.3
20260507044508 36 244 8.7 11.3 0.00 0.01 0.00 91 1016.4
20260507044009 36 242 8.7 10.4 0.00 0.01 0.00 90 1016.4
20260507043509 37 240 7.8 10.4 0.00 0.01 0.00 89 1016.6
20260507043009 37 239 7.8 10.4 0.00 0.01 0.00 88 1016.6
20260507042508 38 238 7.8 10.4 0.00 0.01 0.00 87 1016.7
20260507042008 38 241 8.7 10.4 0.00 0.01 0.00 87 1016.8
20260507041507 38 241 8.7 11.3 0.00 0.01 0.00 87 1016.8
20260507040508 38 248 9.6 12.2 0.00 0.02 0.00 86 1016.9
20260507040007 38 250 10.4 12.2 0.00 0.02 0.00 86 1016.9
20260507035009 38 248 8.7 11.3 0.00 0.02 0.00 86 1017.0
20260507034009 38 247 8.7 11.3 0.00 0.03 0.00 86 1017.1
20260507033508 38 246 7.8 11.3 0.00 0.03 0.00 86 1017.2
20260507033009 38 244 7.8 10.4 0.00 0.03 0.00 86 1017.3
20260507032507 38 241 7.8 8.7 0.00 0.03 0.00 85 1017.3
20260507031509 39 242 7.8 8.7 0.00 0.03 0.00 84 1017.3
20260507031007 39 244 7.8 8.7 0.00 0.03 0.00 84 1017.2
20260507030509 39 242 7.8 8.7 0.00 0.03 0.00 83 1017.1
20260507030008 40 243 7.8 8.7 0.00 0.03 0.00 82 1017.0
20260507025508 40 243 7.8 8.7 0.00 0.03 0.00 82 1017.0
20260507025008 40 247 7.8 8.7 0.00 0.04 0.00 82 1017.1
20260507024507 40 249 7.8 8.7 0.00 0.04 0.00 82 1017.0
20260507024008 41 245 7.8 8.7 0.00 0.04 0.00 81 1017.0
20260507023509 41 239 7.8 10.4 0.00 0.04 0.00 80 1016.9
20260507023009 42 237 7.8 10.4 0.00 0.04 0.00 78 1016.9
20260507022507 42 239 7.8 8.7 0.00 0.04 0.00 77 1016.8
20260507022007 43 240 7.8 8.7 0.00 0.04 0.00 75 1016.8
20260507021509 44 241 7.8 8.7 0.00 0.04 0.00 73 1016.8
20260507021008 44 242 7.8 10.4 0.00 0.04 0.00 71 1016.8
20260507020508 45 251 7.8 10.4 0.00 0.04 0.00 70 1016.7
20260507020009 45 252 7.8 10.4 0.00 0.05 0.00 69 1016.7
20260507015508 46 250 7.8 8.7 0.00 0.05 0.00 68 1016.7
20260507015008 46 252 7.8 10.4 0.00 0.05 0.00 67 1016.7
20260507014507 47 254 7.8 10.4 0.00 0.05 0.00 66 1016.7
20260507014009 48 256 7.8 11.3 0.00 0.05 0.00 64 1016.7
20260507013507 48 252 7.8 11.3 0.00 0.05 0.00 62 1016.7
20260507013008 48 248 7.8 10.4 0.00 0.05 0.00 62 1016.7
20260507012507 49 237 6.1 10.4 0.00 0.05 0.00 61 1016.7
20260507012009 49 247 7.0 10.4 0.00 0.06 0.00 59 1016.7
20260507011508 50 245 7.8 10.4 0.00 0.06 0.00 58 1016.7
20260507011009 50 253 7.0 11.3 0.00 0.06 0.00 58 1016.7
20260507010508 50 255 7.8 12.2 0.00 0.07 0.00 58 1016.7
20260507010009 50 255 8.7 12.2 0.00 0.08 0.00 57 1016.8
20260507005507 50 249 5.2 10.4 0.00 0.09 0.00 55 1016.8
20260507005008 51 256 6.1 8.7 0.00 0.09 0.00 54 1016.8
20260507004507 51 261 7.0 8.7 0.00 0.10 0.00 55 1016.8
20260507004008 51 257 6.1 11.3 0.00 0.11 0.00 56 1016.9
20260507003507 51 253 7.8 12.2 0.00 0.11 0.00 55 1016.9
20260507003008 51 252 8.7 13.9 0.00 0.12 0.00 53 1016.9
20260507002507 51 253 10.4 13.9 0.00 0.12 0.00 53 1016.9
20260507002009 52 258 11.3 13.9 0.00 0.12 0.00 52 1017.0
20260507001507 52 265 8.7 13.0 0.00 0.13 0.00 50 1017.0
20260507001008 52 275 9.6 14.8 0.00 0.13 0.00 49 1017.0
20260507000507 52 258 10.4 14.8 0.00 0.14 0.00 49 1017.1
20260507000007 53 259 10.4 13.9 0.00 0.15 0.00 50 1017.1
20260506235507 53 256 11.3 15.6 0.00 0.15 0.00 47 1017.1
20260506235007 53 257 10.4 15.6 0.00 0.16 0.00 48 1017.2
20260506234506 52 239 10.4 13.9 0.00 0.16 0.00 50 1017.1
20260506234007 52 243 7.8 12.2 0.00 0.17 0.00 51 1017.1
20260506233507 52 285 6.1 12.2 0.00 0.17 0.00 50 1017.2
20260506233007 52 264 7.0 13.9 0.00 0.17 0.00 50 1017.3
20260506232507 53 244 7.8 13.9 0.00 0.17 0.00 50 1017.3
20260506232007 53 231 10.4 13.0 0.00 0.17 0.00 52 1017.3
20260506231008 52 274 5.2 11.3 0.00 0.18 0.00 49 1017.3
20260506230507 52 275 8.7 12.2 0.00 0.18 0.00 53 1017.4
20260506230006 52 248 7.8 12.2 0.00 0.18 0.00 51 1017.4
20260506225507 52 260 7.8 12.2 0.00 0.19 0.00 51 1017.5
20260506224507 51 278 7.8 10.4 0.00 0.20 0.00 53 1017.5
20260506224008 51 281 5.2 10.4 0.00 0.20 0.00 50 1017.5
20260506223006 51 279 5.2 11.3 0.00 0.21 0.00 52 1017.6
20260506222007 51 240 7.8 10.4 0.00 0.21 0.00 54 1017.7
20260506221507 51 240 5.2 11.3 0.00 0.21 0.00 54 1017.7
20260506221006 51 232 5.2 11.3 0.00 0.22 0.00 54 1017.7
20260506220507 51 254 7.8 13.0 0.00 0.22 0.00 54 1017.7
20260506220007 51 299 6.1 13.0 0.00 0.22 0.00 51 1017.8
20260506215506 51 251 6.1 8.7 0.00 0.22 0.00 52 1017.9
20260506215006 51 270 7.0 8.7 0.00 0.22 0.00 51 1017.9
20260506214508 51 275 5.2 12.2 0.00 0.22 0.00 50 1017.9
20260506214006 51 242 6.1 12.2 0.00 0.22 0.00 52 1018.0
20260506213506 50 294 7.0 8.7 0.00 0.23 0.00 52 1018.1
20260506213006 50 300 1.7 7.0 0.00 0.23 0.00 54 1018.2
20260506212506 50 240 0.9 6.1 0.00 0.23 0.00 53 1018.2
20260506212007 50 278 0.9 7.8 0.00 0.23 0.00 52 1018.3
20260506211506 50 310 4.3 8.7 0.00 0.24 0.00 51 1018.4
20260506211006 50 280 4.3 8.7 0.00 0.24 0.00 52 1018.4
20260506210507 50 315 7.0 8.7 0.00 0.24 0.00 51 1018.5
20260506210007 50 302 6.1 8.7 0.00 0.24 0.00 51 1018.5
20260506205507 50 344 2.6 7.8 0.00 0.24 0.00 53 1018.6
20260506205007 50 312 6.1 7.8 0.00 0.24 0.00 51 1018.7
20260506204508 51 233 5.2 10.4 0.00 0.24 0.00 53 1018.9
20260506203506 50 327 4.3 7.8 0.00 0.25 0.00 51 1019.0
20260506203008 50 283 4.3 7.8 0.00 0.25 0.00 54 1019.0
20260506202507 49 329 3.5 6.1 0.00 0.25 0.00 53 1019.0
20260506202007 49 26 1.7 7.0 0.00 0.25 0.00 53 1019.1
20260506201507 49 63 0.9 10.4 0.00 0.26 0.00 56 1019.1
20260506201006 49 351 4.3 10.4 0.00 0.26 0.00 52 1019.1
20260506200507 50 349 4.3 8.7 0.00 0.27 0.00 52 1019.1
20260506200006 50 332 4.3 11.3 0.00 0.27 0.00 52 1019.3
20260506195006 49 320 2.6 8.7 0.00 0.28 0.00 56 1019.2
20260506194506 49 338 4.3 8.7 0.00 0.28 0.00 56 1019.3
20260506194006 49 63 1.7 8.7 0.00 0.29 0.00 55 1019.3
20260506193506 49 55 2.6 8.7 0.00 0.29 0.00 54 1019.2
20260506193006 49 16 6.1 8.7 0.00 0.30 0.00 58 1019.3
20260506192506 49 271 3.5 7.8 0.00 0.30 0.00 58 1019.3
20260506191006 48 8 5.2 10.4 0.00 0.31 0.00 58 1019.4
20260506190506 48 301 6.1 8.7 0.00 0.31 0.00 58 1019.4
20260506185506 47 303 4.3 7.8 0.00 0.31 0.00 58 1019.6
20260506185006 47 320 2.6 5.2 0.00 0.31 0.00 61 1019.6
20260506184508 47 54 2.6 5.2 0.00 0.32 0.00 65 1019.6
20260506184006 47 257 0.9 7.0 0.00 0.32 0.00 61 1019.6
20260506183007 47 10 4.3 10.4 0.00 0.33 0.00 64 1019.7
20260506182506 47 25 2.6 10.4 0.00 0.33 0.00 65 1019.7
20260506182006 46 73 5.2 7.0 0.00 0.33 0.00 63 1019.8
20260506181506 47 18 1.7 7.0 0.00 0.34 0.00 71 1019.9
20260506181006 46 87 3.5 7.0 0.00 0.34 0.00 72 1019.9
20260506180507 47 49 4.3 7.8 0.00 0.34 0.00 69 1019.9
20260506180006 47 50 4.3 8.7 0.00 0.35 0.00 69 1019.9
20260506175507 47 62 6.1 8.7 0.00 0.35 0.00 72 1019.8
20260506174005 46 33 4.3 7.8 0.00 0.36 0.00 69 1019.9
20260506173006 46 44 6.1 7.8 0.00 0.37 0.00 71 1019.8
20260506172005 46 91 7.0 8.7 0.00 0.38 0.00 75 1019.9
20260506171005 45 43 4.3 6.1 0.00 0.38 0.00 75 1020.0
20260506170506 45 63 0.9 6.1 0.00 0.38 0.00 79 1020.1
20260506170005 45 7 4.3 7.8 0.00 0.39 0.00 80 1020.2
20260506165505 44 48 5.2 7.8 0.00 0.39 0.00 79 1020.2
20260506165006 44 71 5.2 6.1 0.00 0.40 0.00 77 1020.1
20260506164506 43 71 2.6 6.1 0.00 0.40 0.00 79 1020.2
20260506164006 43 99 2.6 6.1 0.00 0.41 0.00 81 1020.1
20260506163506 43 72 5.2 7.8 0.00 0.41 0.00 80 1020.1
20260506163006 44 51 4.3 8.7 0.00 0.41 0.00 78 1020.1
20260506162005 43 35 6.1 10.4 0.00 0.43 0.00 83 1019.9
20260506161505 43 70 5.2 7.8 0.00 0.43 0.00 82 1019.8
20260506161006 43 45 3.5 7.8 0.00 0.44 0.00 84 1019.9
20260506160505 43 32 5.2 7.8 0.00 0.45 0.00 84 1019.9
20260506160005 43 15 5.2 7.8 0.00 0.46 0.00 84 1019.8
20260506155505 43 48 5.2 10.4 0.00 0.46 0.00 85 1019.8
20260506155005 43 67 7.0 10.4 0.00 0.47 0.00 88 1019.8
20260506154506 43 40 7.8 11.3 0.00 0.47 0.00 84 1019.8
20260506154006 43 54 7.8 11.3 0.00 0.48 0.00 88 1019.8
20260506153506 43 47 7.8 11.3 0.00 0.48 0.00 86 1019.6
20260506153006 42 51 6.1 11.3 0.00 0.48 0.00 91 1019.6
20260506152505 42 53 7.0 10.4 0.00 0.48 0.00 92 1019.5
20260506152006 42 72 6.1 8.7 0.00 0.49 0.00 91 1019.4
20260506151506 42 77 5.2 7.8 0.00 0.49 0.00 93 1019.4
20260506151005 41 52 4.3 8.7 0.00 0.49 0.00 93 1019.4
20260506150506 41 42 5.2 8.7 0.00 0.49 0.00 92 1019.5
20260506150005 41 60 7.0 8.7 0.00 0.49 0.00 93 1019.4
20260506145505 40 59 6.1 8.7 0.00 0.50 0.00 93 1019.3
20260506145005 40 46 6.1 8.7 0.00 0.50 0.00 93 1019.1
20260506144505 40 42 7.0 8.7 0.00 0.50 0.00 94 1019.1
20260506144006 40 43 7.8 8.7 0.00 0.50 0.00 93 1018.9
20260506143507 40 43 6.1 8.7 0.00 0.51 0.00 94 1019.0
20260506143005 40 33 6.1 8.7 0.00 0.51 0.00 95 1019.1
20260506142506 40 30 6.1 8.7 0.00 0.52 0.00 95 1019.2
20260506141505 40 12 7.8 8.7 0.00 0.52 0.00 95 1019.4
20260506140505 39 18 7.8 10.4 0.00 0.52 0.00 95 1019.3
20260506140005 39 15 7.0 10.4 0.00 0.52 0.00 95 1019.2
20260506135505 38 14 8.7 11.3 0.00 0.52 0.00 95 1019.1
20260506134505 38 7 10.4 12.2 0.00 0.52 0.00 95 1019.1
20260506134005 38 14 8.7 11.3 0.00 0.52 0.00 94 1019.2
20260506133105 38 1 7.0 10.4 0.00 0.52 0.00 95 1019.1
20260506133005 38 355 7.8 10.4 0.00 0.52 0.00 94 1019.1
20260506132505 38 357 7.0 8.7 0.00 0.52 0.00 95 1019.0
20260506131505 37 356 6.1 7.0 0.00 0.52 0.00 95 1018.9
20260506131005 37 356 4.3 7.0 0.00 0.52 0.00 96 1018.9
20260506130006 37 351 3.5 5.2 0.00 0.52 0.00 96 1018.9
20260506125505 37 346 3.5 4.3 0.00 0.53 0.52 97 1018.6
20260506125005 37 332 1.7 4.3 0.00 0.53 0.52 97 1018.5
20260506124506 37 322 1.7 5.2 0.00 0.53 0.52 97 1018.4
20260506124006 36 310 1.7 5.2 0.00 0.53 0.52 97 1018.4
20260506123505 36 309 1.7 6.1 0.00 0.53 0.52 97 1018.3
20260506123005 36 316 4.3 6.1 0.00 0.53 0.52 97 1018.2
20260506122505 36 324 4.3 6.1 0.00 0.53 0.52 97 1018.2
20260506122005 36 320 5.2 6.1 0.00 0.53 0.52 97 1018.1
20260506121505 36 327 3.5 7.0 0.00 0.53 0.52 97 1017.9
20260506120504 36 329 5.2 7.8 0.00 0.54 0.52 98 1017.8
20260506120005 36 334 6.1 7.8 0.00 0.54 0.52 98 1017.9
20260506115505 35 334 5.2 7.0 0.00 0.54 0.52 97 1017.9
20260506115005 35 331 5.2 7.0 0.00 0.54 0.52 97 1017.8